{"data":{"norad_id":81964,"epoch":"2026-09-16T10:55:43.974048Z","epoch_age_seconds":363819,"freshness":"STALE","line1":"1 81964U          26259.45537007  .00000134  00000+0  15478-3 0  9998","line2":"2 81964  66.5836 288.9771 0043858 263.5410  96.0674 13.95950091652800","mean_motion":13.95950091,"eccentricity":0.0043858,"inclination_deg":66.5836,"raan_deg":288.9771,"arg_perigee_deg":263.541,"mean_anomaly_deg":96.0674,"bstar":0.00015478,"rev_number":65280,"period_min":103.1555504229,"perigee_km":875.89826504117,"apogee_km":939.80805633466,"semimajor_km":7285.9901606879,"source":"CELESTRAK","updated_at":"2026-09-20T09:00:32.429026Z"}}